Location: Caucaguita
(10.3578°N, 66.8025°W)
Time: 01:10:46
(UTC+00:00)

Thor Agena Rocket - Pass Details

Date: 18 November 2025
Orbit: 755 x 802 km, 99.1° (Epoch: 08 December)

Event Time Altitude Azimuth Distance (km) Brightness Sun altitude
Rises 22:12:08 0° 172° (S) 3,280 6.9 -3.3°
Reaches altitude 10° 22:14:27 10° 175° (S) 2,356 6.2 -3.9°
Maximum altitude 22:19:38 67° 257° (WSW) 861 4.1 -5.1°
Drops below altitude 10° 22:24:50 10° 340° (NNW) 2,371 6.1 -6.3°
Sets 22:27:11 0° 343° (NNW) 3,301 6.8 -6.8°
